Location: Lac de la Montagne noire
(46.1952°N, 74.2701°W)
Time: 03:21:34
(UTC-05:00)

Tiangong 2 - Visible Passes

Search period start: 21 November 2017 00:00
Search period end: 01 December 2017 00:00
Orbit: 386 x 392 km, 42.8° (Epoch: 20 November)

Date Brightness Start Highest point End Pass type
(mag) Time Alt. Az. Time Alt. Az. Time Alt. Az.
26 Nov 4.0 06:22:11 10° SSW 06:24:16 16° SSE 06:26:20 10° ESE visible
27 Nov 4.3 05:25:33 10° SSE 05:26:18 11° SSE 05:27:02 10° SE visible
28 Nov 3.3 06:01:48 10° SW 06:04:25 24° SSE 06:07:04 10° ESE visible
29 Nov 3.6 05:05:33 15° S 05:06:23 17° SSE 05:08:32 10° ESE visible
29 Nov 2.4 06:39:43 10° WSW 06:42:44 39° S 06:45:46 10° E visible
30 Nov 2.6 05:42:44 17° SW 05:44:36 32° SSE 05:47:31 10° E visible
